TimeIST,TemperatureF,Dew PointF,Humidity,Sea Level PressureIn,VisibilityMPH,Wind Direction,Wind SpeedMPH,Gust SpeedMPH,PrecipitationIn,Events,Conditions,WindDirDegrees,DateUTC
12:10 AM,75.2,64.4,69,29.92,2.5,NE,3.5,-,N/A,,Haze,50,2013-02-27 18:40:00
12:40 AM,75.2,64.4,69,29.92,2.5,ENE,2.3,-,N/A,,Haze,70,2013-02-27 19:10:00
1:10 AM,75.2,64.4,69,29.92,2.2,East,3.5,-,N/A,,Haze,80,2013-02-27 19:40:00
1:40 AM,75.2,64.4,69,29.89,2.2,NE,4.6,-,N/A,,Haze,50,2013-02-27 20:10:00
2:30 AM,74,69,78,29.89,1,NE,5.8,,,,Haze,50,2013-02-27 21:00:00
2:40 AM,73.4,66.2,78,29.89,1.9,NE,5.8,-,N/A,,Haze,50,2013-02-27 21:10:00
3:10 AM,73.4,66.2,78,29.89,1.9,NNE,3.5,-,N/A,,Haze,20,2013-02-27 21:40:00
3:40 AM,73.4,68.0,83,29.89,1.9,North,2.3,-,N/A,,Haze,10,2013-02-27 22:10:00
4:10 AM,73.4,68.0,83,29.86,1.6,NNE,3.5,-,N/A,,Haze,30,2013-02-27 22:40:00
4:40 AM,71.6,68.0,88,29.86,1.6,NNE,3.5,-,N/A,,Haze,20,2013-02-27 23:10:00
5:10 AM,71.6,68.0,88,29.86,1.6,NNE,4.6,-,N/A,,Haze,30,2013-02-27 23:40:00
5:40 AM,73.4,69.8,88,29.89,1.2,NNE,5.8,-,N/A,,Scattered Clouds,20,2013-02-28 00:10:00
6:10 AM,73.4,69.8,88,29.89,1.2,NNE,6.9,-,N/A,,Scattered Clouds,30,2013-02-28 00:40:00
7:10 AM,75.2,71.6,89,29.89,0.9,North,5.8,-,N/A,,Scattered Clouds,10,2013-02-28 01:40:00
7:40 AM,77.0,69.8,78,29.92,0.9,North,9.2,-,N/A,,Scattered Clouds,10,2013-02-28 02:10:00
8:10 AM,78.8,69.8,74,29.92,1.1,NNE,11.5,-,N/A,,Scattered Clouds,20,2013-02-28 02:40:00
8:30 AM,78,71,74,29.93,1,NNE,5.8,,,,Haze,20,2013-02-28 03:00:00
8:40 AM,78.8,69.8,74,29.92,1.2,NNE,10.4,-,N/A,,Scattered Clouds,20,2013-02-28 03:10:00
9:10 AM,78.8,71.6,78,29.95,1.2,NNE,2.3,-,N/A,,Scattered Clouds,20,2013-02-28 03:40:00
9:40 AM,80.6,69.8,70,29.95,1.6,North,4.6,-,N/A,,Scattered Clouds,10,2013-02-28 04:10:00
10:10 AM,82.4,68.0,62,29.95,1.9,ENE,5.8,-,N/A,,Haze,70,2013-02-28 04:40:00
10:40 AM,84.2,68.0,58,29.95,1.9,NNW,3.5,-,N/A,,Haze,330,2013-02-28 05:10:00
11:10 AM,86.0,68.0,55,29.92,3.1,NNW,3.5,-,N/A,,Haze,330,2013-02-28 05:40:00
11:30 AM,90,66,36,29.91,2,NNE,4.6,,,,Haze,20,2013-02-28 06:00:00
11:40 AM,89.6,64.4,43,29.92,3.1,NE,6.9,-,N/A,,Haze,40,2013-02-28 06:10:00
12:10 PM,89.6,66.2,46,29.89,3.1,East,11.5,-,N/A,,Haze,90,2013-02-28 06:40:00
12:40 PM,89.6,66.2,46,29.89,3.7,ENE,11.5,-,N/A,,Scattered Clouds,60,2013-02-28 07:10:00
1:10 PM,91.4,66.2,43,29.86,3.7,ENE,16.1,-,N/A,,Partly Cloudy,60,2013-02-28 07:40:00
1:40 PM,91.4,66.2,43,29.86,5.0,NE,10.4,-,N/A,,Unknown,50,2013-02-28 08:10:00
2:10 PM,93.2,62.6,36,29.83,3.7,East,11.5,-,N/A,,Partly Cloudy,80,2013-02-28 08:40:00
2:30 PM,96,61,22,29.82,2,East,11.5,,,,Haze,90,2013-02-28 09:00:00
2:40 PM,95.0,62.6,34,29.83,3.7,East,12.7,-,N/A,,Partly Cloudy,90,2013-02-28 09:10:00
3:10 PM,96.8,62.6,32,29.80,3.7,East,11.5,-,N/A,,Partly Cloudy,90,2013-02-28 09:40:00
3:40 PM,96.8,62.6,32,29.80,3.7,ENE,12.7,-,N/A,,Unknown,70,2013-02-28 10:10:00
4:10 PM,95.0,62.6,34,29.80,5.0,East,13.8,-,N/A,,Unknown,90,2013-02-28 10:40:00
4:40 PM,95.0,62.6,34,29.80,5.0,East,13.8,-,N/A,,Unknown,100,2013-02-28 11:10:00
5:10 PM,93.2,62.6,36,29.80,5.0,East,17.3,-,N/A,,Unknown,100,2013-02-28 11:40:00
5:30 PM,93,58,22,29.79,2,East,16.1,,,,Haze,90,2013-02-28 12:00:00
5:40 PM,93.2,60.8,34,29.80,5.0,East,16.1,-,N/A,,Unknown,90,2013-02-28 12:10:00
6:40 PM,87.8,60.8,40,29.83,3.1,East,12.7,-,N/A,,Haze,90,2013-02-28 13:10:00
7:10 PM,86.0,60.8,43,29.83,3.1,East,12.7,-,N/A,,Haze,100,2013-02-28 13:40:00
7:40 PM,84.2,60.8,45,29.86,3.1,East,9.2,-,N/A,,Haze,100,2013-02-28 14:10:00
8:10 PM,82.4,64.4,54,29.86,3.1,East,6.9,-,N/A,,Haze,100,2013-02-28 14:40:00
8:30 PM,83,58,32,29.84,2,East,6.9,,,,Haze,90,2013-02-28 15:00:00
8:40 PM,82.4,64.4,54,29.86,3.1,East,8.1,-,N/A,,Haze,90,2013-02-28 15:10:00
9:10 PM,80.6,62.6,54,29.89,3.7,East,8.1,-,N/A,,Haze,90,2013-02-28 15:40:00
9:40 PM,80.6,62.6,54,29.89,-9999.0,North,-9999.0,-,N/A,,Haze,0,2013-02-28 16:10:00
10:10 PM,78.8,62.6,57,29.89,3.1,East,2.3,-,N/A,,Haze,80,2013-02-28 16:40:00
10:40 PM,78.8,62.6,57,29.89,3.7,NE,4.6,-,N/A,,Haze,50,2013-02-28 17:10:00
11:10 PM,78.8,62.6,57,29.89,3.7,NE,4.6,-,N/A,,Haze,50,2013-02-28 17:40:00
11:30 PM,77,64,55,29.91,2,NE,2.3,,,,Haze,50,2013-02-28 18:00:00
11:40 PM,77.0,64.4,65,29.92,2.5,NNE,2.3,-,N/A,,Haze,30,2013-02-28 18:10:00